Voltar ao catálogo

FENGYUN 1C DEB

AtivoSSO
NORAD 30836·DEBRIS·🇨🇳 China

Lançado May 10, 1999 de Taiyuan Satellite Launch Center

Loading…

Próximas Passagens (próximas 24 horas)

TLE

AtualizadoSource: Space-Track

Época: Sep 14, 2026, 01:12 UTC

1 30836U 99025AVW 26257.05005390  .00000320  00000-0  19649-3 0  9996
2 30836  98.7177 287.4913 0026463 180.7350 179.3787 14.12240131658897

Acompanhe FENGYUN 1C DEB em tempo real com AllMySat

Download on the App Store